Presure
175 218 220 203 221 230 271 393 334 487 400 395 369 371 356 351 357 298 260 335 348 286 260 264 253 232 239 249 227 235 239 240 217 199 229 207 229 228 225 241 241 203 225 164 205 133 133
173 198 222 189 193 168 240 328 357 304 440 389 378 347 341 344 342 348 302 277 288 349 324 255 251 223 228 236 250 246 250 233 240 246 212 231 223 231 231 232 237 254 246 243 158 138 222
172 221 231 176 224 231 244 284 371 324 372 440 387 348 358 357 341 342 351 248 272 307 340 341 251 225 230 225 233 230 239 239 278 247 248 226 229 232 216 233 243 236 250 247 251 133 164
204 225 223 177 160 220 224 256 373 350 296 374 368 413 361 363 339 347 343 351 349 269 308 329 336 255 232 225 223 230 231 241 256 259 245 248 211 238 232 232 222 242 239 229 190 130 260
194 192 205 213 156 195 231 233 283 356 340 325 383 426 434 368 336 282 339 361 342 324 268 306 314 297 278 234 235 236 237 237 233 261 258 245 244 235 220 227 233 234 239 246 255 238 261
194 196 220 208 166 173 223 228 240 367 351 326 383 400 535 400 365 333 345 339 349 335 311 259 301 328 292 264 263 213 245 245 249 248 270 250 243 241 239 232 241 245 250 253 258 271 268
203 182 214 186 154 171 231 223 230 241 366 355 316 406 531 489 376 327 347 345 342 339 182 316 259 290 314 250 255 253 264 252 254 256 274 270 249 249 242 245 247 251 252 257 269 275 283
188 186 216 187 217 191 168 243 230 232 333 356 345 402 558 510 402 347 335 345 329 341 275 328 286 276 270 274 284 271 253 258 255 282 281 277 253 251 259 250 247 253 264 278 280 284 291
173 199 203 196 208 136 191 170 214 232 235 359 362 330 501 492 403 380 335 337 343 349 331 211 252 311 317 270 264 266 261 263 276 282 281 279 279 276 265 267 269 274 278 283 301 313 321
196 202 200 202 186 188 179 191 169 174 231 290 366 350 326 468 423 396 364 354 343 259 364 330 290 240 291 311 323 303 306 300 295 285 282 281 280 279 281 281 280 297 323 326 322 322 323
168 184 188 206 98 211 171 176 189 193 169 229 366 368 343 323 386 449 417 400 345 355 363 391 257 219 236 303 266 320 312 313 299 296 296 300 299 297 312 338 340 321 314 314 328 338 353
190 172 187 193 188 215 193 176 182 163 157 189 179 324 368 338 316 331 362 366 383 383 385 391 397 376 324 307 302 241 304 310 301 307 313 331 318 322 304 298 304 316 341 384 316 334 336
190 196 199 191 173 176 210 188 168 171 171 130 151 149 199 370 343 317 290 345 343 341 350 348 353 373 391 386 319 308 297 295 291 299 292 307 302 302 312 326 319 303 294 350 324 313 317
187 184 189 167 190 213 180 199 132 157 150 197 187 186 197 158 173 364 321 302 308 343 338 318 327 330 331 337 350 356 309 305 306 319 278 294 300 296 287 348 334 335 313 298 297 278 287
185 185 183 200 189 207 204 213 185 208 157 159 142 150 153 214 243 163 330 167 315 296 308 314 338 336 333 311 212 335 346 350 355 302 300 323 338 321 328 320 304 292 283 282 290 283 279
184 171 176 199 187 207 190 209 217 182 137 139 137 151 147 143 169 231 253 151 151 205 149 242 275 178 229 275 275 294 290 323 315 310 304 307 311 251 293 281 273 276 275 271 264 272 273
172 180 170 187 185 190 205 192 214 152 140 126 125 124 127 168 166 198 170 250 297 150 190 154 150 338 151 200 240 254 294 292 295 251 305 298 211 234 151 147 146 180 262 227 149 151 201
155 183 178 182 154 195 181 214 204 193 144 137 138 131 134 166 247 185 176 225 220 252 332 156 159 157 150 295 297 287 285 255 151 157 160 159 219 261 166 160 162 164 162 162 163 162 162
179 179 165 183 177 165 193 194 173 209 192 139 126 129 138 159 173 235 158 163 180 220 189 226 217 184 161 159 159 158 159 167 174 145 152 187 195 238 262 258 262 265 254 258 260 259 248
163 172 158 182 177 182 187 190 185 166 220 193 134 128 132 133 217 243 168 226 165 210 229 194 167 169 265 214 174 170 158 287 299 245 143 266 263 265 205 147 265 155 142 204 240 256 251
142 175 167 186 179 184 179 182 205 186 192 170 160 132 132 125 127 147 143 144 206 242 249 179 240 216 219 221 163 165 297 263 149 159 249 145 151 168 149 157 207 122 136 195 134 232 133
176 163 173 165 180 166 183 179 180 188 179 127 160 132 125 135 131 139 145 135 133 248 218 155 159 193 247 168 213 150 135 135 226 149 277 138 263 138 141 128 142 133 132 127 258 135 116
173 159 170 184 171 172 177 172 181 175 195 199 199 212 192 127 150 130 130 193 146 238 162 210 176 150 214 213 245 201 204 196 143 130 130 166 280 151 273 234 221 264 217 218 233 264 212
166 170 161 160 174 172 180 176 184 190 172 191 178 200 202 178 159 127 133 126 134 143 191 212 187 184 245 149 149 183 247 238 236 207 198 202 205 195 178 183 248 262 224 203 220 267 169
146 165 153 168 180 182 180 163 169 163 183 191 189 173 184 176 198 191 216 195 130 135 152 138 168 236 236 162 216 143 214 150 156 163 158 158 160 172 201 192 193 278 198 249 247 196 250
171 148 164 175 150 152 178 172 175 181 184 166 194 171 190 188 201 203 198 187 209 199 199 136 192 141 142 138 143 257 250 142 149 236 154 164 183 226 157 154 172 197 197 197 277 199 187
168 165 159 158 143 165 148 170 179 178 176 156 188 200 188 196 183 190 188 197 194 203 200 199 151 132 141 143 146 146 145 144 145 140 225 220 184 151 155 198 160 206 142 184 203 189 202
131 171 162 144 137 161 163 186 157 163 174 181 170 194 186 181 186 167 180 189 201 186 200 195 206 194 172 185 215 139 141 144 164 148 146 186 137 139 141 141 134 145 143 179 189 209 218
136 167 158 166 160 143 167 152 162 152 177 157 181 161 178 178 191 169 182 183 179 193 182 199 205 197 196 211 185 201 219 136 141 186 142 139 153 255 132 142 137 210 132 141 135 142 141
Wind_Speed
57 87 77 65 69 82 103 84 82 51 51 25 16 19 33 40 41 52 57 53 52 85 84 86 78 67 69 72 77 81 84 87 88 87 90 88 85 86 86 81 84 81 88 76 76 59 59
56 71 83 65 60 71 94 107 80 85 44 20 5 8 24 36 43 43 58 55 55 52 67 73 71 66 64 67 73 79 86 85 88 93 90 89 91 86 85 84 81 74 82 86 71 57 79
53 89 103 52 74 87 98 114 79 78 81 32 20 23 26 37 37 35 37 46 55 51 54 61 74 65 66 68 70 74 81 79 86 92 94 87 87 84 79 75 72 80 75 80 82 53 66
73 100 100 52 57 81 89 108 76 75 77 77 62 24 33 27 29 33 28 21 26 58 53 55 58 75 67 70 73 76 77 78 79 91 90 91 75 83 80 79 77 76 79 84 75 47 85
67 70 73 87 52 64 92 98 114 75 74 74 73 52 25 39 13 25 19 14 21 36 57 53 56 68 82 77 79 78 78 76 73 81 92 87 88 82 74 77 79 79 79 83 85 84 81
70 74 101 73 50 57 89 93 104 75 72 72 77 74 14 35 38 20 18 19 17 36 40 57 55 55 76 84 80 54 76 76 78 75 85 90 87 86 83 78 79 80 81 82 85 84 83
84 60 93 58 48 52 91 90 93 105 72 74 75 79 15 25 38 13 19 23 19 29 5 44 60 60 60 66 69 75 77 72 72 74 81 87 86 90 81 80 79 78 79 83 87 87 83
70 62 105 66 96 64 53 98 95 95 90 74 72 77 22 25 37 23 13 23 19 22 27 42 33 62 64 64 67 70 66 69 69 72 77 79 73 77 82 79 75 78 82 82 85 82 80
49 82 92 72 88 30 62 53 80 96 102 72 71 73 53 36 33 28 17 15 20 22 45 12 20 44 35 65 62 66 65 66 67 70 73 74 77 80 78 79 82 82 78 80 80 75 77
77 84 89 85 60 61 53 63 52 58 96 107 66 69 72 35 26 20 16 17 13 14 20 48 41 12 42 42 47 60 63 65 68 70 70 70 72 72 72 72 72 73 60 61 62 62 64
47 66 70 89 17 96 45 51 61 65 55 97 64 61 65 66 62 27 12 7 22 3 7 14 23 14 4 41 24 41 48 54 58 62 62 61 62 63 59 45 41 37 41 48 45 40 30
75 52 66 77 64 99 65 51 56 45 43 64 59 53 59 59 60 58 47 45 37 31 30 30 23 27 47 42 40 13 33 34 35 35 34 33 30 26 22 28 30 32 27 22 17 10 14
71 76 79 74 46 48 87 67 44 48 47 30 40 40 56 54 50 54 58 45 42 40 38 37 34 31 26 23 49 46 37 33 27 31 10 17 16 14 19 18 12 12 13 19 26 22 21
70 66 74 41 67 90 52 70 25 36 35 65 58 59 68 49 54 45 49 50 42 37 35 37 31 30 27 21 17 21 42 38 25 42 14 7 6 7 11 11 15 25 32 29 28 14 16
69 64 64 79 72 88 81 89 52 82 35 37 33 37 42 66 86 41 44 43 31 36 37 31 28 27 23 19 15 9 9 13 21 7 8 10 14 20 22 35 38 37 30 25 26 24 25
66 45 55 78 67 89 62 82 87 48 23 24 29 37 35 33 43 77 44 36 32 32 30 32 30 34 36 29 25 31 28 32 30 27 25 26 31 27 42 41 34 33 32 30 22 28 29
51 63 40 68 60 68 83 67 85 26 20 15 16 18 22 38 38 56 42 82 34 27 33 29 26 47 25 32 34 36 35 32 28 23 26 38 28 34 18 18 19 18 25 23 24 25 17
26 63 56 62 25 76 49 83 70 54 17 18 17 13 21 35 98 43 43 63 62 79 53 26 26 23 20 40 39 36 33 28 20 18 17 15 29 39 11 12 11 10 12 14 17 20 22
57 59 37 62 56 34 73 71 37 73 54 11 9 13 18 26 36 87 27 32 40 57 41 65 35 25 19 18 20 19 20 13 14 14 16 18 22 26 27 20 20 26 13 13 16 18 6
42 50 25 58 52 57 64 65 49 34 87 54 8 8 11 13 71 98 27 60 31 48 55 41 28 29 60 28 19 17 11 29 23 20 12 28 24 23 16 10 21 12 11 12 9 11 5
19 53 39 60 56 62 50 55 80 50 63 23 19 6 6 7 9 16 18 14 41 71 72 31 60 44 50 52 18 12 32 26 4 7 20 9 9 9 8 5 12 6 13 12 14 16 15
52 42 53 36 59 31 64 50 53 56 38 7 22 6 5 5 6 11 12 10 12 66 57 19 25 20 65 20 39 0 2 1 27 0 16 8 16 11 11 13 14 16 12 16 5 19 12
53 31 55 56 46 45 51 37 57 33 60 65 61 78 44 6 15 4 8 39 10 95 17 46 26 13 36 29 58 18 22 16 5 9 9 11 3 9 10 12 10 9 12 13 9 5 8
56 57 30 32 53 50 60 45 65 69 31 65 37 66 68 18 22 9 6 7 10 11 44 52 32 29 67 10 10 24 49 48 46 21 15 18 21 11 6 6 11 16 13 15 11 15 14
17 55 21 53 62 61 61 19 32 38 56 66 61 40 37 19 58 43 77 44 9 9 8 11 17 71 65 10 34 4 40 7 9 11 8 10 9 12 10 5 4 20 5 13 11 8 14
57 18 52 64 22 16 61 47 51 57 60 22 71 23 64 51 66 71 50 25 60 46 35 9 49 7 8 9 7 69 57 2 5 41 15 15 15 26 15 10 6 3 3 4 33 11 14
56 54 43 36 15 49 19 52 60 58 46 21 66 67 61 66 44 56 42 53 38 56 46 40 18 13 14 12 12 12 13 10 8 5 35 31 23 19 17 20 8 17 13 11 7 14 13
28 58 45 23 22 52 46 66 36 26 55 61 35 67 59 36 54 18 35 51 66 29 53 39 55 35 25 43 53 18 19 19 22 17 14 17 10 9 8 13 11 18 14 15 21 23 17
34 57 42 54 49 29 61 22 37 19 62 17 62 20 51 41 63 20 43 39 33 56 21 51 63 38 40 69 17 50 64 23 24 24 22 19 21 45 15 18 11 23 15 19 16 19 18
Wind_Direction
338 2 359 351 353 357 7 3 4 8 356 74 64 169 210 233 240 240 234 234 233 234 241 240 240 228 233 236 234 236 236 238 237 239 237 241 237 240 241 244 245 240 243 233 239 227 229
343 354 2 355 350 344 8 10 12 8 6 4 29 301 241 237 243 242 238 232 229 227 229 236 235 225 230 231 236 238 237 235 237 235 237 236 238 237 239 242 246 248 248 248 231 227 242
346 13 13 352 4 9 17 17 12 14 22 7 318 331 242 236 247 249 249 234 224 230 222 222 233 222 227 227 233 233 236 236 237 238 237 237 239 240 242 244 246 247 249 249 249 226 232
12 15 16 359 356 11 16 20 11 15 15 19 16 285 262 249 258 249 249 249 227 220 222 217 217 232 226 227 229 233 236 238 235 233 237 238 239 241 241 242 244 245 246 247 239 224 249
10 10 11 14 5 11 17 22 21 14 18 21 15 7 258 236 252 253 241 218 212 207 220 217 214 218 225 226 230 231 234 238 237 238 236 239 240 240 241 243 245 245 247 251 253 247 253
12 13 22 11 5 9 19 22 27 13 16 20 18 12 350 221 227 213 231 195 192 175 206 217 211 208 220 229 231 233 237 239 242 243 236 239 241 242 244 245 249 252 254 255 257 259 255
17 10 19 11 10 13 20 23 26 27 17 21 22 16 9 180 197 193 213 190 184 182 102 205 220 217 214 228 232 235 238 241 244 245 237 237 240 242 245 249 253 256 258 260 261 261 261
18 15 19 15 23 19 19 23 24 30 21 20 27 26 32 152 178 172 165 178 181 166 176 181 205 218 225 224 224 229 237 239 244 238 239 241 241 245 248 251 253 257 259 260 260 260 260
13 22 22 16 18 18 22 25 29 27 31 21 25 32 41 122 142 161 121 150 178 168 176 76 168 204 211 225 229 231 235 239 239 239 241 243 245 248 251 254 256 257 258 260 262 264 265
21 20 22 24 14 17 23 23 31 30 30 28 24 30 34 83 125 158 146 166 158 103 175 193 196 136 212 214 211 218 220 225 231 236 241 245 248 252 254 255 256 260 261 258 259 261 265
16 20 20 21 19 25 22 27 24 30 34 33 30 32 37 42 54 83 157 193 80 77 240 229 173 154 62 212 211 220 222 225 230 235 242 247 249 253 258 263 260 261 258 253 261 272 274
20 17 19 22 22 24 20 25 25 39 43 36 39 33 42 40 42 51 57 62 72 85 87 89 101 188 209 210 219 168 230 239 239 242 245 254 248 261 246 238 243 256 275 266 254 250 150
15 21 19 21 18 19 26 29 29 30 37 30 43 49 42 45 47 44 48 61 66 67 73 77 80 86 98 176 213 219 228 240 250 259 187 286 265 257 262 271 245 223 225 140 133 138 121
17 23 21 17 22 23 21 25 33 43 50 29 32 36 41 45 52 55 50 45 53 71 78 75 82 87 92 98 122 190 224 235 247 252 184 243 235 192 196 135 127 128 130 138 141 178 117
9 14 23 15 23 21 26 28 23 31 41 40 55 51 55 43 42 49 55 61 49 54 68 78 83 85 87 96 92 112 184 228 244 162 177 265 136 122 115 122 124 131 137 135 121 118 107
5 23 20 12 22 16 24 25 30 20 63 52 57 44 52 55 48 44 55 68 65 71 77 67 71 86 86 98 101 101 102 95 100 109 119 118 113 127 120 122 134 134 133 129 133 125 119
8 8 22 13 23 21 18 28 26 42 63 57 43 35 44 47 54 46 46 51 65 69 64 76 82 91 93 96 97 88 94 95 95 105 106 119 134 132 169 183 197 184 148 159 215 217 200
7 360 12 9 359 11 25 13 28 29 51 65 55 56 55 44 35 32 37 52 51 53 84 59 62 73 90 85 85 84 83 94 121 113 110 118 131 139 134 161 172 182 197 212 225 229 232
351 357 3 4 5 11 12 18 14 26 32 64 76 54 44 42 37 42 57 55 33 53 53 55 65 67 65 84 92 100 101 115 123 144 129 114 144 143 145 143 146 147 148 157 148 150 137
357 355 3 359 8 4 8 13 15 22 15 34 57 69 41 53 43 35 43 42 47 46 43 58 59 56 55 61 62 67 99 65 85 132 169 122 134 141 150 186 151 192 212 199 81 164 131
331 346 1 350 0 359 8 14 2 20 4 27 23 37 50 18 40 38 29 27 40 41 40 28 44 57 60 58 63 68 63 55 142 111 134 192 215 206 211 197 180 237 230 215 243 188 245
332 345 342 0 350 7 357 11 9 13 10 291 358 309 327 18 6 16 16 10 0 42 41 56 40 46 42 44 66 78 302 274 51 207 125 235 79 243 230 248 235 245 277 274 233 256 270
325 337 337 338 351 352 356 8 358 14 7 4 12 9 20 315 17 344 348 44 10 28 44 34 45 62 48 52 39 60 46 64 284 273 262 238 84 248 235 252 308 266 308 305 324 267 271
322 324 321 341 337 340 342 340 350 353 3 358 21 9 11 16 17 299 301 306 339 340 26 27 37 39 39 57 51 36 36 36 36 60 65 62 63 64 348 353 282 6 277 274 344 292 315
283 322 325 324 325 330 335 355 354 337 349 351 352 351 19 13 15 13 13 23 289 306 346 321 22 23 26 16 34 85 39 16 16 21 357 351 351 1 65 66 21 267 347 41 350 275 346
304 292 317 316 308 323 330 336 339 342 342 358 347 1 356 2 357 3 18 24 16 15 33 313 15 298 306 306 312 25 25 250 9 21 344 345 10 21 343 311 306 353 320 311 280 290 276
296 300 300 300 290 320 289 325 329 332 333 304 341 341 348 347 351 359 3 6 25 13 14 13 340 282 291 295 302 300 296 291 292 267 19 29 358 328 325 354 322 345 319 316 297 271 283
273 290 291 260 271 309 310 311 309 327 325 329 327 333 342 346 345 327 0 357 354 9 7 8 7 12 4 4 7 294 297 296 331 299 294 4 240 277 281 301 272 319 303 316 324 325 299
266 283 281 289 297 286 304 298 312 294 315 304 321 300 327 337 335 330 345 352 351 351 4 358 0 9 12 3 351 5 357 291 291 343 294 287 307 1 249 293 279 348 255 296 276 302 298